RH
74 74 74 73 71 70 70 70 69 70 71 73 76 80 85 88 89 77 42 38 50 48 53 21 19 21 30 36 45 46 58 64 52 37 35 34 30 28 25 22 28 35 47 44 45
70 70 70 70 70 70 70 70 70 70 71 72 74 80 86 89 93 64 40 47 45 47 21 22 19 20 24 34 48 52 63 52 39 38 36 35 33 29 27 30 36 44 53 46 48
71 71 72 71 71 71 70 70 71 72 72 73 75 83 88 93 64 27 51 49 46 41 26 25 21 25 30 32 38 50 54 45 34 34 34 35 34 32 31 34 30 37 56 50 48
71 71 72 72 72 69 70 72 73 75 76 77 79 86 93 90 30 24 51 47 44 30 21 19 18 27 35 32 28 38 32 28 26 31 37 35 34 34 36 32 30 35 47 50 49
71 72 72 72 70 70 71 73 76 79 82 84 85 87 82 55 35 22 56 44 23 22 19 21 20 28 28 26 22 28 26 21 22 22 22 33 35 34 33 28 32 41 45 48 48
72 73 73 71 70 71 73 75 77 80 83 86 86 89 73 33 20 20 26 23 19 21 20 19 24 23 25 28 26 25 26 24 22 22 22 28 31 36 28 28 33 43 47 47 47
73 73 72 72 76 74 74 77 79 81 83 87 87 75 57 24 18 21 18 20 19 21 25 24 25 23 31 27 24 22 22 20 20 21 22 26 27 26 25 27 28 42 49 46 45
73 74 73 75 77 76 78 81 85 86 85 88 88 79 36 28 20 16 18 19 17 19 22 23 23 29 31 26 25 23 26 28 21 26 24 20 30 23 19 28 20 25 44 46 47
74 74 73 75 80 80 83 84 83 81 82 85 76 73 31 26 19 19 18 20 19 19 21 14 23 32 26 34 31 29 34 31 22 22 26 25 26 21 23 26 23 22 30 39 42
72 75 78 80 82 84 86 83 79 74 64 58 45 42 24 26 24 22 21 19 21 23 22 26 32 35 34 35 37 34 32 31 28 21 28 31 27 25 22 24 23 21 20 29 33
71 76 80 80 82 86 89 63 65 61 55 57 48 38 31 26 26 21 20 20 21 22 30 28 30 32 24 30 29 29 32 33 27 23 24 24 25 24 25 25 28 29 22 22 21
71 77 81 82 85 88 76 76 79 75 64 52 43 34 30 30 29 21 18 24 29 31 30 29 32 25 22 24 26 28 35 31 26 23 25 28 30 28 25 26 29 30 30 27 25
72 77 79 82 87 59 54 59 64 74 81 51 35 33 32 29 30 23 20 24 26 30 28 28 22 23 21 24 24 26 27 29 28 28 27 32 33 31 25 27 26 29 32 31 30
78 80 78 84 54 64 59 47 51 70 52 36 37 33 29 34 32 21 21 26 27 26 27 27 22 23 26 25 24 32 31 32 32 30 25 31 43 34 30 29 30 35 35 35 35
78 81 83 84 83 60 48 52 56 68 36 32 33 26 28 34 28 27 23 24 28 24 28 26 28 29 30 26 27 26 33 32 34 38 53 41 40 37 33 32 32 35 36 35 36
79 82 85 74 75 60 54 61 72 37 48 34 31 30 28 29 26 28 26 24 29 31 33 29 25 26 25 27 27 28 32 41 47 45 52 40 40 44 34 33 39 40 40 41 42
82 84 85 66 58 52 70 77 40 38 35 40 39 36 38 30 28 28 31 33 37 41 38 30 32 29 26 30 30 32 44 51 49 51 48 37 32 36 34 34 36 41 45 46 45
83 82 70 59 62 63 82 42 48 59 61 48 47 46 40 27 31 29 37 44 46 38 41 43 34 29 28 32 37 38 38 48 39 41 38 33 42 36 34 37 39 43 49 46 48
82 76 55 45 41 72 55 69 71 68 56 58 49 41 40 37 34 37 65 73 67 61 43 42 36 27 27 28 28 37 36 33 34 46 41 39 34 29 38 42 46 50 48 51 47
95 81 57 37 45 66 60 72 68 52 50 55 65 53 62 57 50 46 68 71 72 65 66 49 43 32 28 29 32 34 34 37 49 39 54 41 41 44 48 50 50 53 54 51 47
81 57 39 36 50 61 79 78 56 49 52 57 64 67 66 68 65 64 78 73 69 66 62 74 45 35 34 36 35 36 33 38 40 52 46 50 57 47 49 50 53 53 50 49 47
79 42 35 46 58 80 75 63 60 56 53 55 61 62 67 63 63 73 75 74 64 62 63 73 68 60 38 32 31 35 37 39 50 44 54 61 64 46 49 45 46 47 44 43 43
84 73 46 45 67 73 67 59 51 56 51 58 58 57 53 57 62 68 78 62 62 59 68 62 70 74 42 40 45 47 42 48 43 53 48 60 68 45 47 46 44 46 44 41 38
73 60 69 63 67 60 58 53 62 44 47 50 49 47 53 60 53 69 63 57 57 56 55 65 78 75 56 74 60 61 56 54 53 61 57 56 67 55 51 48 44 45 44 41 40
83 84 83 80 67 62 59 54 54 56 50 48 56 54 56 63 64 66 62 56 52 53 52 56 70 72 61 49 51 52 52 50 62 58 68 56 66 60 53 48 44 40 39 38 37
84 82 81 78 64 61 68 65 62 55 55 57 59 54 60 70 68 74 64 64 61 55 56 55 65 62 62 46 40 51 60 62 60 54 60 58 52 44 36 40 37 40 35 38 40
94 88 72 74 73 75 74 64 61 56 57 50 55 57 60 60 55 53 53 53 54 64 63 61 66 63 71 52 39 69 52 47 41 38 48 52 45 38 40 35 35 42 36 36 41
Wind_Speed
18 18 18 19 19 19 19 20 21 20 19 19 19 19 18 16 15 2 4 7 5 5 4 4 5 5 3 2 1 4 4 1 2 6 6 5 3 2 1 4 4 2 8 5 17
18 19 19 19 19 20 20 21 21 21 20 19 19 18 17 14 3 3 7 4 4 5 1 4 5 7 3 2 2 5 4 4 4 2 4 4 5 1 3 1 4 3 5 12 16
19 19 20 20 21 21 22 22 21 21 20 19 18 17 16 9 3 2 4 5 4 3 1 1 2 1 2 2 2 3 4 5 6 3 5 3 3 5 5 3 7 8 8 15 12
19 20 21 21 22 23 23 23 22 21 19 18 16 16 12 2 4 2 4 5 5 2 3 3 5 3 2 4 3 2 7 3 5 3 2 4 2 5 4 6 1 9 17 16 15
19 20 21 22 23 24 24 23 22 20 18 16 14 12 2 1 6 2 3 4 4 2 3 2 4 2 1 4 6 4 3 5 5 8 4 3 4 6 6 10 3 11 14 17 17
20 21 22 23 25 25 25 23 22 20 18 15 11 6 0 0 3 5 4 1 3 1 4 4 2 3 1 2 1 3 4 8 7 6 5 4 5 1 8 5 7 13 17 16 17
22 23 24 25 25 26 26 24 22 20 17 13 7 3 2 7 3 4 4 2 1 1 2 1 2 4 1 5 3 4 6 8 5 3 4 4 7 9 10 3 5 11 12 13 17
23 24 26 26 27 28 27 24 22 17 12 7 3 2 4 4 2 2 1 3 4 1 1 2 3 1 2 3 8 4 4 6 7 3 2 7 9 10 9 4 10 9 10 13 15
23 25 27 27 27 28 27 25 15 4 3 7 2 0 3 8 2 3 1 1 3 3 3 1 3 1 6 3 5 6 1 2 9 3 2 3 7 9 5 2 10 10 9 12 13
24 24 25 27 27 28 26 18 2 2 1 3 2 2 3 1 3 4 1 1 2 1 5 4 5 3 4 5 3 3 2 3 5 5 1 2 10 10 10 6 9 11 10 8 11
24 24 25 27 27 29 13 4 7 5 8 2 3 2 3 7 2 2 3 2 3 6 0 3 5 3 6 5 5 3 3 3 5 2 3 3 5 9 8 10 13 11 8 9 9
25 25 25 26 24 25 2 6 2 4 4 3 4 4 4 1 4 3 3 2 2 2 1 5 5 9 6 4 4 4 2 5 6 3 2 5 5 6 9 5 6 8 11 10 5
26 26 26 24 24 5 7 5 3 2 1 6 3 2 0 1 1 3 2 1 3 2 2 5 7 2 4 2 2 3 3 3 3 6 3 0 6 8 5 6 10 10 6 9 9
25 25 25 25 5 5 3 7 5 2 5 6 2 1 2 1 2 1 2 2 2 3 2 5 4 3 1 3 3 3 2 1 1 5 2 3 3 4 6 8 9 11 11 11 11
25 23 21 11 2 3 5 6 5 4 5 2 1 1 1 1 2 1 2 3 3 4 5 7 1 1 2 4 1 6 1 2 3 2 3 2 6 6 3 7 7 10 11 12 13
26 22 15 1 2 5 5 4 4 4 2 3 1 2 4 1 2 1 3 4 0 2 1 7 4 2 5 2 2 2 3 6 5 3 2 5 5 4 2 4 3 5 9 10 11
26 22 7 0 3 4 4 3 5 7 4 6 3 6 5 3 2 3 2 6 3 4 5 6 1 2 1 3 3 6 6 3 3 3 5 2 4 6 2 4 5 6 8 10 11
25 14 1 3 4 3 3 4 7 1 3 4 3 6 3 5 2 1 4 4 5 5 2 3 6 2 2 1 2 1 5 5 3 2 3 2 5 2 4 7 7 6 6 12 14
15 4 3 4 4 3 5 8 2 2 4 6 6 4 6 6 4 5 5 4 3 7 2 3 5 3 1 1 3 1 0 3 2 2 3 1 5 8 6 8 9 10 12 11 12
2 3 5 6 2 4 6 5 3 4 4 3 3 4 4 6 5 5 4 4 5 3 3 2 5 2 3 2 0 3 2 1 3 2 2 2 4 1 0 5 7 9 8 8 10
4 4 5 12 3 7 5 2 4 3 6 4 4 3 3 4 3 3 2 2 3 7 3 1 2 7 3 0 2 3 2 1 3 4 4 4 2 5 2 5 8 6 6 7 9
3 4 5 7 7 3 3 3 3 6 6 6 4 5 3 5 4 2 3 3 7 3 4 1 2 4 7 5 4 1 1 3 5 3 1 4 2 6 5 7 6 6 6 6 6
3 2 5 5 5 3 3 4 6 7 7 6 6 5 5 4 4 4 3 5 8 5 3 4 2 4 7 6 6 5 3 3 2 2 3 5 4 6 8 10 9 7 7 7 7
4 4 7 7 2 4 3 5 3 8 5 4 6 6 5 6 6 4 6 4 8 7 10 1 1 4 4 1 4 6 8 5 2 2 1 2 7 6 7 8 9 9 6 6 7
4 1 2 4 7 6 5 5 4 6 6 12 5 7 4 3 6 5 6 7 5 11 6 5 3 4 4 6 4 7 10 9 4 5 3 4 7 4 4 5 4 5 6 7 7
4 3 4 2 3 7 8 6 5 5 6 5 4 5 6 4 1 5 5 2 4 6 5 7 4 5 4 6 6 3 7 8 4 5 3 14 8 5 6 4 5 5 6 7 6
3 3 4 7 4 5 2 3 4 3 1 4 1 3 3 2 5 9 10 9 8 3 4 3 1 3 5 6 8 3 9 8 10 11 4 7 3 2 2 5 4 2 5 5 4
Wind_Direction
354 351 348 345 343 339 336 332 330 328 327 326 328 332 333 330 317 145 240 211 193 280 293 301 6 358 70 327 290 96 63 315 270 346 299 339 71 22 50 110 43 48 149 200 154
354 351 348 344 341 337 333 329 326 325 324 324 326 330 331 334 301 264 253 213 243 295 5 30 338 2 6 297 340 94 109 233 204 280 286 345 21 356 102 40 23 28 14 132 145
352 348 345 342 338 334 329 326 323 320 319 320 323 327 328 328 313 261 187 218 239 276 59 305 317 11 330 28 228 182 192 210 278 224 233 329 331 323 119 216 202 188 157 154 161
349 345 341 338 333 329 326 324 320 317 316 317 321 324 322 280 154 295 191 236 256 321 2 13 26 42 314 322 326 265 259 207 283 330 250 181 271 311 204 235 83 177 165 159 176
345 342 338 334 331 327 325 322 318 315 314 314 318 328 340 9 257 223 197 268 293 345 354 335 55 59 356 301 335 194 274 300 279 293 281 221 223 232 263 272 181 139 163 181 183
342 340 336 332 328 326 324 320 316 312 309 308 309 323 309 297 252 166 195 250 270 78 14 56 134 213 215 286 189 302 282 286 294 281 281 271 274 136 252 254 115 159 184 190 193
340 338 335 331 326 326 323 318 313 305 302 297 289 241 87 219 330 203 193 247 246 73 66 54 129 60 11 322 287 287 316 310 267 235 240 141 315 244 259 351 281 194 199 204 206
339 336 334 330 327 326 322 316 310 301 293 277 206 189 233 265 266 271 1 314 312 342 141 190 91 103 170 285 357 9 40 3 301 93 278 125 272 278 285 239 269 235 215 206 215
337 335 333 330 327 325 322 318 317 312 157 128 127 187 305 313 92 311 330 221 285 309 308 23 60 63 14 62 8 13 302 297 319 320 88 125 269 269 315 272 287 281 211 211 222
337 334 331 328 329 325 323 320 328 95 143 198 257 33 340 355 317 332 269 156 56 41 6 34 43 42 34 65 223 266 314 292 256 310 43 275 273 304 303 308 289 288 281 207 220
339 335 331 330 330 324 339 15 17 3 38 59 299 282 316 301 279 315 305 68 40 50 27 352 46 256 257 200 217 226 223 259 259 249 353 294 324 318 337 31 4 340 301 267 228
338 335 332 330 328 320 356 70 148 208 327 315 254 273 253 268 355 300 112 84 88 236 15 18 245 249 229 226 230 243 302 295 291 322 87 17 27 308 16 357 335 332 12 18 36
337 335 333 329 321 353 61 52 341 123 76 315 278 298 303 80 270 269 111 122 208 261 198 173 240 169 199 282 297 270 218 252 236 326 12 117 9 354 337 4 10 10 343 21 23
334 336 336 331 40 320 59 323 351 163 82 329 9 322 355 126 335 299 21 120 343 252 282 231 282 207 247 266 145 290 184 114 346 51 244 39 253 330 333 7 17 4 12 11 8
335 336 340 347 249 50 288 327 327 58 69 302 311 243 328 359 280 294 347 52 244 283 68 262 238 227 308 244 170 234 288 245 197 111 28 317 94 267 5 31 1 1 18 25 24
335 334 341 26 10 241 313 317 55 49 75 337 7 358 357 241 269 29 37 35 308 298 224 241 288 220 216 280 245 350 19 34 52 96 15 233 122 259 189 147 56 22 25 22 18
334 329 329 257 278 318 332 56 42 83 328 333 342 6 341 277 268 185 71 24 48 21 359 330 281 335 68 343 22 64 48 341 358 13 215 142 68 241 125 99 109 74 36 35 35
332 326 315 221 273 332 48 55 75 68 318 347 343 311 216 355 311 355 63 29 6 27 53 40 332 357 18 140 256 244 142 158 269 217 271 329 138 124 85 82 62 43 42 45 38
336 339 328 266 293 91 76 53 119 342 301 326 323 50 350 356 21 68 49 11 19 1 78 32 273 311 199 326 111 360 258 193 122 7 60 231 72 49 21 49 48 47 44 37 33
24 355 284 317 2 68 70 120 102 22 325 340 31 27 36 330 29 34 18 324 329 359 352 331 306 279 292 11 77 195 227 352 12 235 231 359 76 97 97 74 52 43 41 38 37
45 41 267 338 69 49 90 98 103 44 24 19 15 9 360 360 315 27 348 300 329 312 58 16 137 288 342 213 232 354 310 72 128 140 179 149 291 359 153 102 92 55 44 48 44
13 46 305 345 51 34 63 63 23 356 359 18 73 26 9 346 347 59 117 357 331 317 345 2 153 259 243 286 306 246 211 116 122 253 147 133 247 13 29 46 60 48 43 39 46
51 284 326 43 84 26 39 65 61 21 17 14 21 16 2 343 353 39 69 8 350 19 38 338 323 329 340 355 358 40 20 26 113 73 219 136 203 34 34 36 18 21 16 19 22
64 24 337 37 25 82 54 27 74 31 62 49 19 41 359 16 8 24 4 343 333 1 21 78 252 205 218 17 354 318 339 355 78 99 265 201 136 26 23 26 4 359 18 21 21
36 58 192 4 2 37 62 34 20 12 5 21 42 35 345 339 351 27 5 325 2 355 18 57 297 322 306 278 249 266 279 287 259 235 157 142 100 76 16 6 6 2 11 14 19
88 65 7 23 4 47 27 6 37 354 18 37 58 345 40 59 42 297 6 291 265 352 29 352 297 356 287 337 314 235 7 331 307 311 228 127 89 2 5 327 8 14 23 6 2
345 14 96 339 21 68 22 20 34 16 69 98 34 15 346 266 259 254 230 236 253 314 345 303 281 23 272 327 312 52 338 65 75 32 55 59 61 205 309 336 339 346 359 340 316